EW3517 Weather Reports


Display with metric or nautical units.
time (UTC)temp
F
wind
direction
speed
MPH
gust
MPH
rain 1hr
in
rain 24hr
in
rain mn
in
humidity
%
barometer
mb
20260505163009 57 23 0.0 0.0 0.00 0.00 0.00 81 1002.3
20260505161503 58 24 0.0 0.0 0.00 0.00 0.00 81 1001.7
20260505160109 59 40 0.0 1.0 0.00 0.00 0.00 81 1001.1
20260505153052 62 12 0.0 1.0 0.00 0.00 0.00 81 1000.5
20260505151547 63 57 0.0 0.0 0.00 0.00 0.00 80 1000.0
20260505124525 69 79 0.0 0.0 0.00 0.00 0.00 81 997.7
20260505123023 69 33 0.0 0.0 0.00 0.00 0.00 80 997.5
20260505121524 69 14 0.0 0.0 0.00 0.00 0.00 79 997.3
20260505120019 70 14 0.0 0.0 0.00 0.00 0.00 77 997.2
20260505114515 70 14 0.0 0.0 0.00 0.00 0.00 76 996.9
20260505113013 71 14 0.0 0.0 0.00 0.00 0.00 74 996.4
20260505111511 72 239 0.0 0.0 0.00 0.00 0.00 73 995.8
20260505101513 72 240 0.0 0.0 0.00 0.00 0.00 73 995.0
20260505100007 73 67 0.0 0.0 0.00 0.00 0.00 73 994.9
20260505094517 73 304 0.0 0.0 0.00 0.00 0.00 73 994.8
20260505093006 73 186 0.0 0.0 0.00 0.00 0.00 73 994.8
20260505091506 73 33 0.0 0.0 0.00 0.00 0.00 73 994.8
20260505090001 73 90 0.0 0.0 0.00 0.00 0.00 73 994.9
20260505084500 73 288 0.0 1.0 0.00 0.00 0.00 73 995.1
20260505083100 73 309 0.0 1.0 0.00 0.00 0.00 73 995.2
20260505081558 73 15 0.0 0.0 0.00 0.00 0.00 73 995.4
20260505080105 73 156 0.0 0.0 0.00 0.00 0.00 73 995.5
20260505074555 73 320 0.0 1.0 0.00 0.00 0.00 73 995.6
20260505073055 73 20 0.0 0.0 0.00 0.00 0.00 73 995.7
20260505071551 73 209 0.0 0.0 0.00 0.00 0.00 73 995.9
20260505070054 73 339 0.0 0.0 0.00 0.00 0.00 72 996.2
20260505064547 73 76 0.0 0.0 0.00 0.00 0.00 71 996.4
20260505063107 73 249 0.0 0.0 0.00 0.00 0.00 72 996.4
20260505061545 73 306 0.0 0.0 0.00 0.00 0.00 71 996.5
20260505060042 73 68 0.0 0.0 0.00 0.00 0.00 71 996.7
20260505054541 74 65 0.0 0.0 0.00 0.00 0.00 71 997.0
20260505053040 74 218 0.0 0.0 0.00 0.00 0.00 70 997.1
20260505051535 74 130 0.0 0.0 0.00 0.00 0.00 70 997.1
20260505041547 75 355 0.0 0.0 0.00 0.00 0.00 69 997.7
20260505040038 75 61 0.0 1.0 0.00 0.00 0.00 68 997.8
20260505034531 75 270 0.0 0.0 0.00 0.00 0.00 67 997.8
20260505033029 76 178 0.0 0.0 0.00 0.00 0.00 67 997.6
20260505031538 76 109 0.0 1.0 0.00 0.00 0.00 66 997.6
20260505030027 76 303 0.0 0.0 0.00 0.00 0.00 65 997.5
20260505024526 77 63 0.0 0.0 0.00 0.00 0.00 64 997.1
20260505023026 77 63 0.0 0.0 0.00 0.00 0.00 64 997.2
20260505021525 77 136 0.0 1.0 0.00 0.00 0.00 63 996.9
20260505020023 78 119 0.0 1.0 0.00 0.00 0.00 62 996.9
20260505014531 78 280 0.0 0.0 0.00 0.00 0.00 61 996.9
20260505013021 79 15 0.0 1.0 0.00 0.00 0.00 60 997.0
20260505011521 79 221 0.0 1.0 0.00 0.00 0.00 59 997.1
20260505010023 79 98 0.0 1.0 0.00 0.00 0.00 59 997.4
20260505004520 80 334 0.0 0.0 0.00 0.00 0.00 58 997.3
20260505003017 80 148 0.0 0.0 0.00 0.00 0.00 56 997.3
20260505001516 81 121 0.0 0.0 0.00 0.00 0.00 55 997.6
20260505000014 81 261 0.0 0.0 0.00 0.00 0.00 55 997.7
20260504234513 81 138 0.0 1.0 0.00 0.00 0.00 54 997.7
20260504233011 81 173 0.0 0.0 0.00 0.00 0.00 54 997.9
20260504231510 82 142 0.0 0.0 0.00 0.00 0.00 53 998.0
20260504230008 82 5 0.0 0.0 0.00 0.00 0.00 53 998.3
20260504224506 81 112 0.0 1.0 0.00 0.00 0.00 52 998.4
20260504223005 81 26 0.0 0.0 0.00 0.00 0.00 53 998.7
20260504221504 82 145 0.0 1.0 0.00 0.00 0.00 52 998.7
20260504220008 81 100 0.0 0.0 0.00 0.00 0.00 51 998.8
20260504214600 82 169 0.0 0.0 0.00 0.00 0.00 51 999.1
20260504213105 82 134 0.0 0.0 0.00 0.00 0.00 50 999.4
20260504211601 82 115 0.0 0.0 0.00 0.00 0.00 50 999.4
20260504210059 82 5 0.0 0.0 0.00 0.00 0.00 48 999.8
20260504204555 83 184 0.0 0.0 0.00 0.00 0.00 47 1000.0
20260504203106 83 35 0.0 0.0 0.00 0.00 0.00 46 1000.3
20260504201555 83 309 0.0 1.0 0.00 0.00 0.00 47 1000.3
20260504200048 83 265 0.0 1.0 0.00 0.00 0.00 45 1000.6
20260504194544 83 56 0.0 0.0 0.00 0.00 0.00 47 1000.8
20260504193042 82 179 0.0 1.0 0.00 0.00 0.00 47 1001.1
20260504191539 81 186 0.0 1.0 0.00 0.00 0.00 47 1001.4
20260504190039 81 219 0.0 0.0 0.00 0.00 0.00 47 1001.4
20260504184533 80 171 0.0 1.0 0.00 0.00 0.00 47 1001.7
20260504183031 80 279 0.0 1.0 0.00 0.00 0.00 47 1001.9
20260504181534 80 265 0.0 0.0 0.00 0.00 0.00 47 1002.2
20260504180027 80 324 0.0 0.0 0.00 0.00 0.00 46 1002.3
20260504174524 80 134 0.0 0.0 0.00 0.00 0.00 47 1002.7
20260504173023 79 292 0.0 1.0 0.00 0.00 0.00 46 1002.7
20260504171519 78 265 0.0 0.0 0.00 0.00 0.00 46 1002.9